Location: Aranbee
(34.0885°N, 118.2342°W)
Time: 23:48:55
(UTC+00:00)

Tiros 1 - Pass Details

Date: 01 December 2020
Orbit: 630 x 663 km, 48.4° (Epoch: 20 January)

Event Time Altitude Azimuth Distance (km) Brightness Sun altitude
Rises 03:09:57 0° 313° (NW) 2,984 11.1 -29.8°
Reaches altitude 10° 03:12:40 10° 327° (NNW) 2,066 10.0 -30.3°
Enters shadow 03:13:29 14° 334° (NNW) 1,828 9.6 -30.5°
Maximum altitude 03:16:36 25° 23° (NNE) 1,317 - -31.1°
Drops below altitude 10° 03:20:30 10° 79° (ENE) 2,045 - -31.9°
Sets 03:23:10 0° 92° (E) 2,947 - -32.5°
